Regional Weather Roundup
Issued by NWS

Home | Current Version | Previous Version | Text Only | Print | Product List | Glossary On
Versions: 1 2 3 4 5 6 7 8 9 10 11 12 13 14 15 16 17 18 19 20 21 22 23 24 25 26 27 28 29 30 31 32 33 34 35 36 37 38 39 40 41 42 43 44 45 46 47 48 49 50
000
ASUS43 KDTX 201210
RWRMI
MICHIGAN HOURLY REGIONAL WEATHER ROUNDUP
NATIONAL WEATHER SERVICE DETROIT/PONTIAC MI
700 AM EST MON NOV 20 2017

NOTE: "FAIR" INDICATES FEW OR NO CLOUDS BELOW 12,000 FEET WITH NO
SIGNIFICANT WEATHER AND/OR OBSTRUCTION TO VISIBILITY.

MIZ047>049-052>055-059>063-066>070-074>076-081>083-201300-
SOUTHEAST LOWER MICHIGAN

CITY           SKY/WX    TMP DP  RH WIND       PRES   REMARKS
ADRIAN         CLEAR     26  21  81 SW8       30.06S WCI  18
6HR MIN TEMP:  26; 6HR MAX TEMP:  28;

ALMA           CLEAR     31  28  90 S10       29.94S WCI  22
6HR MIN TEMP:  29; 6HR MAX TEMP:  32;

ANN ARBOR      CLEAR     27  22  81 S10       30.03R WCI  17
BAD AXE        CLOUDY    30  25  80 SW9       29.94R WCI  22
6HR MIN TEMP:  26; 6HR MAX TEMP:  30;

CARO           CLOUDY    30  26  83 SW9       29.94S WCI  22
DETROIT CITY   CLOUDY    30  24  78 SW10      30.04R WCI  21
DETROIT        CLOUDY    29  24  82 SW12      30.04R WCI  19
6HR MIN TEMP:  29; 6HR MAX TEMP:  31;

FLINT          MOCLDY    31  25  78 SW10      29.99R WCI  22
6HR MIN TEMP:  28; 6HR MAX TEMP:  31;

GROSSE ILE     MOCLDY    30  24  76 SW7       30.05S WCI  24
6HR MIN TEMP:  29; 6HR MAX TEMP:  32;

HILLSDALE      CLEAR     27  21  80 S7        30.02S WCI  19
HOWELL         PTCLDY    29  26  86 SW9       29.99S WCI  21
6HR MIN TEMP:  29; 6HR MAX TEMP:  31;


CITY           SKY/WX    TMP DP  RH WIND       PRES   REMARKS
JACKSON        CLEAR     29  20  69 SW13      30.01S WCI  19
6HR MIN TEMP:  28; 6HR MAX TEMP:  29;

LAMBERTVILLE   CLEAR     30  22  72 SW6       30.08R WCI  24
6HR MIN TEMP:  30; 6HR MAX TEMP:  32;

LANSING        CLEAR     29  24  82 SW10      29.98S WCI  20
6HR MIN TEMP:  28; 6HR MAX TEMP:  30;

LAPEER         MOCLDY    31  26  81 SW8       29.97S WCI  23
6HR MIN TEMP:  28; 6HR MAX TEMP:  32;

MASON          CLEAR     31  23  74 SW7       29.99F WCI  24
MONROE         CLEAR     31  22  72 SW9       30.06S WCI  22
6HR MIN TEMP:  30; 6HR MAX TEMP:  32;

MT. CLEMENS    CLOUDY    31  26  81 SW9       30.01R WCI  23
6HR MIN TEMP:  28; 6HR MAX TEMP:  31;

PONTIAC        MOCLDY    29  25  85 SW7       29.99R WCI  22
6HR MIN TEMP:  28; 6HR MAX TEMP:  29;

PORT HOPE        N/A     30  23  75 SW6       29.91F WCI  24
6HR MIN TEMP:  27; 6HR MAX TEMP:  30;

PORT HURON     CLOUDY    30  23  74 SW7       30.01R WCI  23
TRI CITIES     CLEAR     31  27  85 SW10      29.95R WCI  22
6HR MIN TEMP:  29; 6HR MAX TEMP:  32;

MIDLAND        FAIR      32  27  83 S8        29.93S WCI  24
6HR MIN TEMP:  28; 6HR MAX TEMP:  32;

TROY           CLOUDY    31  26  78 SW9       30.04R WCI  23
SAGINAW HB     PTCLDY    32  28  86 SW10G16   29.95S WCI  24
$$
MIZ043>046-050>051-056>058-064>065-071>073-077>080-201300-
SOUTHWEST LOWER MICHIGAN

CITY           SKY/WX    TMP DP  RH WIND       PRES   REMARKS
BATTLE CREEK   CLEAR     28  22  78 SW10      30.01R WCI  19
6HR MIN TEMP:  26; 6HR MAX TEMP:  28;

BENTON HARBOR  CLEAR     30  21  69 S9        29.99F WCI  22
6HR MIN TEMP:  29; 6HR MAX TEMP:  38;

BIG RAPIDS     CLEAR     26  24  93 SE3       29.89S
6HR MIN TEMP:  25; 6HR MAX TEMP:  31;

COLDWATER      CLEAR     28  22  79 SW8       30.03S WCI  20
6HR MIN TEMP:  27; 6HR MAX TEMP:  28;

FREMONT        FAIR      33  32  94 SW6       29.90F WCI  28
HOLLAND        CLEAR     33  28  81 S13       29.95F WCI  24
6HR MIN TEMP:  31; 6HR MAX TEMP:  40;

GRAND RAPIDS   CLEAR     30  28  92 S12       29.95F WCI  20
6HR MIN TEMP:  30; 6HR MAX TEMP:  34;

IONIA          FAIR      31  26  83 S14       29.95S WCI  21
6HR MIN TEMP:  30; 6HR MAX TEMP:  32;

KALAMAZOO      CLEAR     28  20  71 S12       30.01S WCI  18
6HR MIN TEMP:  28; 6HR MAX TEMP:  29;

LUDINGTON      CLEAR     37  32  82 SW7       29.86F WCI  31
6HR MIN TEMP:  36; 6HR MAX TEMP:  38;

MARSHALL       CLEAR     27  21  77 SW7       30.02R WCI  20
6HR MIN TEMP:  27; 6HR MAX TEMP:  28;

MOUNT PLEASANT PTCLDY    32  28  83 SW6       29.91F WCI  27
6HR MIN TEMP:  31; 6HR MAX TEMP:  33;

MUSKEGON       PTCLDY    41  32  70 SW12      29.92S
6HR MIN TEMP:  38; 6HR MAX TEMP:  42;

SOUTH HAVEN    CLEAR     30  23  75 S8        29.98F WCI  23
$$
MIZ016>042-201300-
NORTHERN LOWER MICHIGAN

CITY           SKY/WX    TMP DP  RH WIND       PRES   REMARKS
ALPENA         CLOUDY    29  23  78 SW6       29.88R WCI  23
6HR MIN TEMP:  28; 6HR MAX TEMP:  31;

BEAVER ISLAND  CLEAR     25  22  88 CALM      29.83S
6HR MIN TEMP:  25; 6HR MAX TEMP:  32;

BELLAIRE       CLOUDY    32  28  87 CALM      29.86S
6HR MIN TEMP:  30; 6HR MAX TEMP:  33;

CADILLAC       PTCLDY    26  24  94 S5        29.84F WCI  20
CHARLEVOIX     MOCLDY    36  28  73 CALM      29.87S
6HR MIN TEMP:  33; 6HR MAX TEMP:  37;

FRANKFORT      PTCLDY    39  30  71 W3        29.85S
GAYLORD        CLOUDY    27  22  81 SW7       29.83S WCI  19
6HR MIN TEMP:  21; 6HR MAX TEMP:  27;

GRAYLING       MOCLDY    27  22  84 CALM      29.86S
HARBOR SPRINGS CLOUDY    30  23  73 CALM      29.84S
MANISTEE       CLEAR     28  25  88 E3        29.86F
OSCODA         CLOUDY    24  19  81 SW6       29.91S WCI  17
6HR MIN TEMP:  22; 6HR MAX TEMP:  26;

PELLSTON       CLOUDY    20  18  92 CALM      29.85S
6HR MIN TEMP:  16; 6HR MAX TEMP:  31;

ROGERS CITY    CLOUDY    30  24  78 SW5       29.87S WCI  25
TRAVERSE CITY  MOCLDY    31  25  78 CALM      29.85S
6HR MIN TEMP:  30; 6HR MAX TEMP:  32;

$$
MIZ007>008-015-201300-
EASTERN UPPER MICHIGAN

CITY           SKY/WX    TMP DP  RH WIND       PRES   REMARKS
KINROSS        CLOUDY    25  21  85 SW3       29.83S
6HR MIN TEMP:  24; 6HR MAX TEMP:  26;

MACKINAC ISLAN CLEAR     31  23  72 NW8       29.83S WCI  24
6HR MIN TEMP:  31; 6HR MAX TEMP:  32;

NEWBERRY       PTCLDY    21  17  87 SW6       29.82S WCI  13
6HR MIN TEMP:  20; 6HR MAX TEMP:  25;

S. S. MARIE    CLOUDY    28  22  78 NE3       29.82S
6HR MIN TEMP:  26; 6HR MAX TEMP:  29; 6HR PCP: TRACE;

MUNISING         N/A     21  16  81 S6        29.80F WCI  13
6HR MIN TEMP:  21; 6HR MAX TEMP:  26;

$$
MIZ004>006-011>014-085-201300-
CENTRAL UPPER MICHIGAN

CITY           SKY/WX    TMP DP  RH WIND       PRES   REMARKS
MANISTIQUE     CLEAR     19  14  81 CALM      29.82F
6HR MIN TEMP:  17; 6HR MAX TEMP:  26;

ESCANABA       PTCLDY    20  18  92 CALM      29.82S
6HR MIN TEMP:  19; 6HR MAX TEMP:  24;

MENOMINEE      PTCLDY    26  21  81 SW3       29.83F
6HR MIN TEMP:  25; 6HR MAX TEMP:  28;

SAWYER-GWINN   CLEAR     18  14  86 CALM      29.78S
$$
MIZ001>003-009>011-084-201300-
WESTERN UPPER MICHIGAN

CITY           SKY/WX    TMP DP  RH WIND       PRES   REMARKS
IRON MOUNTAIN  CLOUDY    19  15  84 CALM      29.76F
6HR MIN TEMP:  18; 6HR MAX TEMP:  21;

HOUGHTON       CLOUDY    19  15  84 CALM      29.72F
6HR MIN TEMP:  18; 6HR MAX TEMP:  26;

COPPER HARBOR    N/A     20  17  88 W5        29.75F WCI  13
6HR MIN TEMP:  20; 6HR MAX TEMP:  29;

IRONWOOD       CLOUDY   N/A N/A N/A VRB5      29.70F
$$

ABBREVIATIONS USED IN REMARKS
   TC - TEMPERATURE IN CELSIUS
  WCI - WIND CHILL INDEX
   HX - HEAT INDEX
  VSB - VISIBILITY





USA.gov is the U.S. government's official web portal to all federal, state and local government web resources and services.